Orbital Elements at Epoch 2459200.5 (2020-Dec-17.0) TDB
Reference: JPL 13 (heliocentric ecliptic J2000)
Element | Value | Uncertainty (1-sigma) | Units |
e | .07896836050843076 | 5.507e-08 | |
a | 2.663545252641672 | 1.579e-08 | au |
q | 2.453209450900545 | 1.5212e-07 | au |
i | 2.410707320968833 | 5.1936e-06 | deg |
node | 225.1660539093731 | 0.00012173 | deg |
peri | 278.9341744152865 | 0.0001261 | deg |
M | 292.9871836782615 | 3.4318e-05 | deg |
tp | 2459496.058814473377 (2021-Oct-08.55881447) | 0.00015219 | TDB |
period | 1587.77348947055 4.35 | 1.4119e-05 3.866e-08 | d yr |
n | .2267325927705491 | 2.0162e-09 | deg/d |
Q | 2.873881054382799 | 1.7037e-08 | au |
|
| | Orbit Determination Parameters
Additional Information
|